[ hide orbit diagram ]
For accurate long-term ephemerides, please instead use our Horizons system.This orbit viewer was implemented using two-body methods, and hence should not be used for determining accurate long-term trajectories (over several years or decades) or planetary encounter circumstances.
Orbital Elements at Epoch 2459000.5 (2020-May-31.0) TDB
Reference: JPL 8 (heliocentric ecliptic J2000)
Element | Value | Uncertainty (1-sigma) | Units |
e | .3067826390164513 | 9.275e-08 | |
a | 2.659898083278697 | 3.2287e-08 | au |
q | 1.843887529775658 | 2.6364e-07 | au |
i | 6.828613433789001 | 6.2938e-06 | deg |
node | 37.22271333274089 | 8.6341e-05 | deg |
peri | 301.7031476916496 | 8.7722e-05 | deg |
M | 301.3588666508405 | 2.0097e-05 | deg |
tp | 2459258.604618675856 (2021-Feb-13.10461868) | 9.2296e-05 | TDB |
period | 1584.513419446724 4.34 | 2.885e-05 7.899e-08 | d yr |
n | .227199085587867 | 4.1367e-09 | deg/d |
Q | 3.475908636781736 | 4.2192e-08 | au |
|
| | Orbit Determination Parameters
Additional Information
|
[ hide covariance matrix ]
Orbital Elements at Epoch 2457731.5 (2016-Dec-09.0) TDB
Reference: JPL 8 (heliocentric ecliptic J2000)
Element | Value | Uncertainty (1-sigma) | Units |
e | .3063116889390293 | 9.2424e-08 | |
q | 1.845495179047123 | 2.6238e-07 | au |
tp | 2457675.237102085728 (2016-Oct-13.73710209) | 7.1325e-05 | TDB |
node | 37.23263911092859 | 8.6304e-05 | deg |
peri | 301.8619156837553 | 8.7704e-05 | deg |
i | 6.829242229246193 | 6.2945e-06 | deg |
|
| | Orbit Determination Parameters
Additional Information
|
Orbit Covariance (6×6)
|
|
e |
q |
tp |
node |
peri |
i |
e |
8.542207230043152E-15 |
-2.420973101360573E-14 |
-4.851382052953134E-12 |
-2.506828128258773E-13 |
-1.035419861025134E-12 |
-6.751023538552612E-14 |
q |
-2.420973101360573E-14 |
6.884511070646594E-14 |
1.394513312170545E-11 |
7.174117788242314E-13 |
2.978759703796091E-12 |
1.938459096940778E-13 |
tp |
-4.851382052953134E-12 |
1.394513312170545E-11 |
5.087203615919877E-9 |
1.715365232912359E-10 |
1.280003347423576E-9 |
4.95740659539731E-11 |
node |
-2.506828128258773E-13 |
7.174117788242314E-13 |
1.715365232912359E-10 |
7.448342991032442E-9 |
-7.348425140666426E-9 |
1.834077361887469E-10 |
peri |
-1.035419861025134E-12 |
2.978759703796091E-12 |
1.280003347423576E-9 |
-7.348425140666426E-9 |
7.691950650526279E-9 |
-1.685087742149639E-10 |
i |
-6.751023538552612E-14 |
1.938459096940778E-13 |
4.95740659539731E-11 |
1.834077361887469E-10 |
-1.685087742149639E-10 |
3.962080690005548E-11 |
|
Physical Parameter Table
Parameter |
Symbol |
Value |
Units |
Sigma |
Reference |
Notes |
absolute magnitude |
H |
17.1 |
|
n/a |
MPO434686 |
|
|
469327 (1999 VS206) Discovered 1999-Oct-19 by Spacewatch at Kitt Peak |
Reference: | Last Updated: 2016-08-22 |
|
[ hide close-approach data ]
Close-Approach Data ...sorted by Date/Time (TDB)
|
Date/Time (TDB) |
Time Uncertainty (days_HH:MM) |
Body |
Nominal Distance (au) |
Minimum Distance (au) |
Maximum Distance (au) |
V-relative (km/s) |
V-infinity (km/s) |
JD (TDB) |
Time Uncertainty (minutes) |
Semi-major axis (km) |
Semi-minor axis (km) |
range-LOV angle (deg) |
N-sigma |
BP |
Orbit Ref. |
Reference |
Modified |
1979-Jul-01 06:15 |
00:02 |
Jupiter |
1.99609591601548 |
1.99609441472754 |
1.99609741835332 |
1.01709188381019 |
0.431041444549628 |
2444055.760431335 |
2.07513115252006 |
7849.73889912109 |
1701.65440110972 |
-31.238774325051 |
1042913.64571936 |
T |
8 |
CATAB v2.0f-lin.ifort 2020-Nov-12 04:21:08 |
2020-Nov-12 04:21 |
2027-Jul-17 10:55 |
< 00:01 |
Jupiter |
1.95307473633031 |
1.95307389133983 |
1.95307558149354 |
1.13243075282275 |
0.644225140690154 |
2461603.954958038 |
0.541662522746233 |
2115.85248316191 |
992.878956342934 |
-40.2992468443401 |
817900.023803232 |
T |
8 |
CATAB v2.0f-lin.ifort 2020-Nov-12 04:21:08 |
2020-Nov-12 04:21 |
2075-Jul-29 19:38 |
00:03 |
Jupiter |
1.99867631955117 |
1.99867513568216 |
1.9986775035105 |
1.48634537574002 |
1.16689292367963 |
2479148.318067597 |
2.77084962676883 |
925.067196599062 |
282.334875146459 |
-80.7568287303517 |
740795.443397124 |
T |
8 |
CATAB v2.0f-lin.ifort 2020-Nov-12 04:21:08 |
2020-Nov-12 04:21 |
2157-Sep-08 11:08 |
00:07 |
Jupiter |
1.97981023723997 |
1.97980891407781 |
1.97981156075776 |
1.10014649113089 |
0.595535050905498 |
2509138.963807736 |
6.95663520185535 |
2403.7005482785 |
2200.32528454704 |
-13.2294950508032 |
566175.210282616 |
T |
8 |
CATAB v2.0f-lin.ifort 2020-Nov-12 04:21:08 |
2020-Nov-12 04:21 |
|
|